sat.trackr.live / text

‹ back to catalog

STARLINK-37143

NORAD 68336 · 2026-059R

PAYLOAD ACTIVE UNKNOWN

§ Identity

Operator
Country
US
Launch date
2026-03-22
Launch site
AFETR
Launch vehicle
Mass (kg)
RCS (m²)

Purposes: comms

External: N2YO · Heavens-Above · Gunter

§ Orbital elements

Epoch: 2026-05-24T21:39:22.463712Z

Period
94.11 min
Inclination
53.1599°
Eccentricity
0.0001191
Mean motion
15.30192954 rev/d
Perigee alt
474.4 km
Apogee alt
476.1 km
Semi-major
6,853.4 km
B*
1.1419e-4
RAAN
354.3062°
Arg perigee
65.4955°
Mean anomaly
294.6169°
Rev number
984

§ Raw data

STARLINK-371431 68336U 26059R   26144.90234333  .00003023  00000+0  11419-3 0  99982 68336  53.1599 354.3062 0001191  65.4955 294.6169 15.30192954  9846

JSON: /api/v1/satellites/68336 · /tle

For live sub-satellite position, see the globe view (requires WebGL).

§ Visibility from observer

Set your observer location to see the next 7 days of passes ≥ 10°. The values pass through the URL so the page stays shareable.

No JS? Fill the form by hand. The geolocation button needs JavaScript.